Location: Complexul Astronomic Baia Mare
(47.6577°N, 23.5639°E)
Time: 06:46:02
(UTC+03:00)

ISS - Pass Details

Date: 20 May 2017
Orbit: 402 x 408 km, 51.6° (Epoch: 29 May)

Event Time Altitude Azimuth Distance (km) Brightness Sun altitude
Exits shadow 01:42:29 37° 59° (ENE) 647 -2.6 -22.2°
Drops below altitude 10° 01:44:38 10° 65° (ENE) 1,467 -0.6 -22.2°
Sets 01:46:43 0° 67° (ENE) 2,328 0.4 -22.2°
